,,PA_Meas_PMT16A,,PR_Meas_QMR101_102,,RH_Meas_QMH101,,SR_Meas_QMS101,,TA_Meas_QMH101,,GenWind,,GenWind,
time,status,PA,status,PR,status,RH,status,SR,status,TA,status,DirAvg,status,SpdAvg,
2012-03-13, 00:00:04,VALID,919.297,VALID,0,VALID,97.2977,VALID,0,VALID,18.8449,VALID,132,VALID,1.24297,
2012-03-13, 00:01:04,VALID,919.311,VALID,0,VALID,97.3053,VALID,0,VALID,18.8449,VALID,132,VALID,1.21133,
2012-03-13, 00:02:04,VALID,919.326,VALID,0,VALID,97.3129,VALID,0,VALID,18.824,VALID,132,VALID,1.18984,
2012-03-13, 00:03:04,VALID,919.329,VALID,0,VALID,97.3129,VALID,0,VALID,18.8254,VALID,132,VALID,1.13086,
2012-03-13, 00:04:04,VALID,919.31,VALID,0,VALID,97.3281,VALID,0,VALID,18.824,VALID,135,VALID,1.38477,
2012-03-13, 00:05:04,VALID,919.311,VALID,0,VALID,97.3281,VALID,0,VALID,18.8045,VALID,135,VALID,1.02227,
2012-03-13, 00:06:04,VALID,919.29,VALID,0,VALID,97.351,VALID,0,VALID,18.824,VALID,135,VALID,0.813672,
2012-03-13, 00:07:04,VALID,919.302,VALID,0,VALID,97.3663,VALID,0,VALID,18.824,VALID,142,VALID,0.775781,
2012-03-13, 00:08:04,VALID,919.284,VALID,0,VALID,97.3358,VALID,0,VALID,18.824,VALID,130,VALID,1.60352,
2012-03-13, 00:09:04,VALID,919.25,VALID,0,VALID,97.3434,VALID,0,VALID,18.824,VALID,130,VALID,1.38047,
2012-03-13, 00:10:04,VALID,919.26,VALID,0,VALID,97.3358,VALID,0,VALID,18.824,VALID,130,VALID,1.30742,
2012-03-13, 00:11:04,VALID,919.27,VALID,0,VALID,97.3205,VALID,0,VALID,18.824,VALID,130,VALID,1.2875,
2012-03-13, 00:12:04,VALID,919.249,VALID,0,VALID,97.3281,VALID,0,VALID,18.8254,VALID,130,VALID,1.1082,
2012-03-13, 00:13:04,VALID,919.228,VALID,0,VALID,97.3205,VALID,0,VALID,18.8045,VALID,130,VALID,1.07656,
2012-03-13, 00:14:04,VALID,919.251,VALID,0,VALID,97.3358,VALID,0,VALID,18.8045,VALID,130,VALID,0.745313,
2012-03-13, 00:15:04,VALID,919.242,VALID,0,VALID,97.3434,VALID,0,VALID,18.8254,VALID,130,VALID,0.485547,
2012-03-13, 00:16:04,VALID,919.215,VALID,0,VALID,97.3358,VALID,0,VALID,18.824,VALID,130,VALID,0.523828,
2012-03-13, 00:17:04,VALID,919.196,VALID,0,VALID,97.3358,VALID,0,VALID,18.824,VALID,130,VALID,0.684766,
2012-03-13, 00:18:04,VALID,919.197,VALID,0,VALID,97.3358,VALID,0,VALID,18.824,VALID,130,VALID,0.900781,
2012-03-13, 00:19:04,VALID,919.168,VALID,0,VALID,97.3205,VALID,0,VALID,18.824,VALID,130,VALID,0.660156,
2012-03-13, 00:20:04,VALID,919.14,VALID,0,VALID,97.3205,VALID,0,VALID,18.8644,VALID,130,VALID,0.808203,
2012-03-13, 00:21:04,VALID,919.148,VALID,0,VALID,97.3053,VALID,0,VALID,18.824,VALID,130,VALID,0.939453,
2012-03-13, 00:22:04,VALID,919.152,VALID,0,VALID,97.3129,VALID,0,VALID,18.8434,VALID,130,VALID,1.10234,
2012-03-13, 00:23:04,VALID,919.124,VALID,0,VALID,97.3053,VALID,0,VALID,18.8449,VALID,130,VALID,0.875,
2012-03-13, 00:24:04,VALID,919.125,VALID,0,VALID,97.3053,VALID,0,VALID,18.8045,VALID,130,VALID,0.941016,
2012-03-13, 00:25:04,VALID,919.125,VALID,0,VALID,97.3129,VALID,0,VALID,18.8045,VALID,130,VALID,0.844922,
2012-03-13, 00:26:04,VALID,919.128,VALID,0,VALID,97.3358,VALID,0,VALID,18.8449,VALID,130,VALID,0.795313,
2012-03-13, 00:27:04,VALID,919.124,VALID,0,VALID,97.3434,VALID,0,VALID,18.8045,VALID,130,VALID,0.581641,
2012-03-13, 00:28:04,VALID,919.107,VALID,0,VALID,97.3281,VALID,0,VALID,18.8045,VALID,130,VALID,0.771484,
2012-03-13, 00:29:04,VALID,919.11,VALID,0,VALID,97.3434,VALID,0,VALID,18.8045,VALID,130,VALID,0.756641,
2012-03-13, 00:30:04,VALID,919.085,VALID,0,VALID,97.3434,VALID,0,VALID,18.8254,VALID,130,VALID,0.996094,
2012-03-13, 00:31:04,VALID,919.104,VALID,0,VALID,97.3586,VALID,0,VALID,18.8045,VALID,131,VALID,1.46289,
2012-03-13, 00:32:04,VALID,919.07,VALID,0,VALID,97.3586,VALID,0,VALID,18.8045,VALID,140,VALID,1.35156,
2012-03-13, 00:33:04,VALID,919.068,VALID,0,VALID,97.351,VALID,0,VALID,18.8434,VALID,143,VALID,1.38359,
2012-03-13, 00:34:04,VALID,919.076,VALID,0,VALID,97.3358,VALID,0,VALID,18.842,VALID,144,VALID,1.24336,
2012-03-13, 00:35:04,VALID,919.046,VALID,0,VALID,97.3281,VALID,0,VALID,18.8629,VALID,144,VALID,1.38477,
2012-03-13, 00:36:04,VALID,919.065,VALID,0,VALID,97.3205,VALID,0,VALID,18.842,VALID,147,VALID,1.13867,
2012-03-13, 00:37:04,VALID,919.035,VALID,0,VALID,97.2824,VALID,0,VALID,18.8615,VALID,145,VALID,1.04258,
2012-03-13, 00:38:04,VALID,919.039,VALID,0,VALID,97.3053,VALID,0,VALID,18.8629,VALID,145,VALID,1.44727,
2012-03-13, 00:39:04,VALID,919.01,VALID,0,VALID,97.2672,VALID,0,VALID,18.8629,VALID,153,VALID,1.04609,
2012-03-13, 00:40:04,VALID,918.984,VALID,0,VALID,97.2672,VALID,0,VALID,18.8434,VALID,168,VALID,0.891016,
2012-03-13, 00:41:04,VALID,918.974,VALID,0,VALID,97.2672,VALID,0,VALID,18.8629,VALID,152,VALID,0.719922,
2012-03-13, 00:42:04,VALID,918.955,VALID,0,VALID,97.2595,VALID,0,VALID,18.8629,VALID,152,VALID,0.991406,
2012-03-13, 00:43:04,VALID,918.931,VALID,0,VALID,97.2443,VALID,0,VALID,18.803,VALID,152,VALID,1.12227,
2012-03-13, 00:44:04,VALID,918.91,VALID,0,VALID,97.2519,VALID,0,VALID,18.8449,VALID,152,VALID,0.790234,
2012-03-13, 00:45:04,VALID,918.86,VALID,0,VALID,97.2367,VALID,0,VALID,18.8449,VALID,151,VALID,0.805078,
2012-03-13, 00:46:04,VALID,918.859,VALID,0,VALID,97.2595,VALID,0,VALID,18.8449,VALID,156,VALID,0.880078,
2012-03-13, 00:47:04,VALID,918.844,VALID,0,VALID,97.2672,VALID,0,VALID,18.824,VALID,156,VALID,0.945313,
2012-03-13, 00:48:04,VALID,918.841,VALID,0,VALID,97.2748,VALID,0,VALID,18.785,VALID,156,VALID,0.673437,
2012-03-13, 00:49:04,VALID,918.86,VALID,0,VALID,97.2748,VALID,0,VALID,18.785,VALID,156,VALID,0.66875,
2012-03-13, 00:50:04,VALID,918.86,VALID,0,VALID,97.2824,VALID,0,VALID,18.785,VALID,156,VALID,1.0293,
2012-03-13, 00:51:04,VALID,918.832,VALID,0,VALID,97.2672,VALID,0,VALID,18.7655,VALID,136,VALID,1.24805,
2012-03-13, 00:52:04,VALID,918.835,VALID,0,VALID,97.2672,VALID,0,VALID,18.746,VALID,136,VALID,1.16367,
2012-03-13, 00:53:04,VALID,918.862,VALID,0,VALID,97.2748,VALID,0,VALID,18.7265,VALID,136,VALID,1.36133,
2012-03-13, 00:54:04,VALID,918.829,VALID,0,VALID,97.2824,VALID,0,VALID,18.7265,VALID,136,VALID,1.35703,
2012-03-13, 00:55:04,VALID,918.875,VALID,0,VALID,97.2748,VALID,0,VALID,18.7474,VALID,132,VALID,1.16562,
2012-03-13, 00:56:04,VALID,918.85,VALID,0,VALID,97.29,VALID,0,VALID,18.7474,VALID,110,VALID,0.867188,
2012-03-13, 00:57:04,VALID,918.858,VALID,0,VALID,97.2977,VALID,0,VALID,18.707,VALID,106,VALID,1.09844,
2012-03-13, 00:58:04,VALID,918.839,VALID,0,VALID,97.2748,VALID,0,VALID,18.707,VALID,120,VALID,1.12656,
2012-03-13, 00:59:04,VALID,918.84,VALID,0,VALID,97.2519,VALID,0,VALID,18.7084,VALID,132,VALID,1.66016,
2012-03-13, 01:00:04,VALID,918.843,VALID,0,VALID,97.2672,VALID,0,VALID,18.707,VALID,131,VALID,1.15078,
2012-03-13, 01:01:04,VALID,918.839,VALID,0,VALID,97.2824,VALID,0,VALID,18.707,VALID,128,VALID,1.27891,
2012-03-13, 01:02:04,VALID,918.796,VALID,0,VALID,97.2519,VALID,0,VALID,18.707,VALID,128,VALID,1.1918,
2012-03-13, 01:03:04,VALID,918.794,VALID,0,VALID,97.2519,VALID,0,VALID,18.7265,VALID,128,VALID,0.912891,
2012-03-13, 01:04:04,VALID,918.756,VALID,0,VALID,97.2595,VALID,0,VALID,18.7265,VALID,128,VALID,0.698047,
2012-03-13, 01:05:04,VALID,918.737,VALID,0,VALID,97.2595,VALID,0,VALID,18.7474,VALID,128,VALID,0.689844,
2012-03-13, 01:06:04,VALID,918.751,VALID,0,VALID,97.229,VALID,0,VALID,18.746,VALID,128,VALID,1.1082,
2012-03-13, 01:07:04,VALID,918.723,VALID,0,VALID,97.2367,VALID,0,VALID,18.746,VALID,128,VALID,0.745703,
2012-03-13, 01:08:04,VALID,918.681,VALID,0,VALID,97.2443,VALID,0,VALID,18.7655,VALID,128,VALID,0.667969,
2012-03-13, 01:09:04,VALID,918.689,VALID,0,VALID,97.2443,VALID,0,VALID,18.7669,VALID,128,VALID,0.378906,
2012-03-13, 01:10:04,VALID,918.692,VALID,0,VALID,97.1909,VALID,0,VALID,18.746,VALID,128,VALID,0.728125,
2012-03-13, 01:11:04,VALID,918.712,VALID,0,VALID,97.2214,VALID,0,VALID,18.746,VALID,128,VALID,0.942578,
2012-03-13, 01:12:04,VALID,918.733,VALID,0,VALID,97.1604,VALID,0,VALID,18.7669,VALID,128,VALID,1.22734,
2012-03-13, 01:13:04,VALID,918.723,VALID,0,VALID,97.1528,VALID,0,VALID,18.785,VALID,128,VALID,0.761328,
2012-03-13, 01:14:04,VALID,918.724,VALID,0,VALID,97.1604,VALID,0,VALID,18.7864,VALID,128,VALID,0.701953,
2012-03-13, 01:15:04,VALID,918.75,VALID,0,VALID,97.1299,VALID,0,VALID,18.785,VALID,128,VALID,1.09609,
2012-03-13, 01:16:04,VALID,918.716,VALID,0,VALID,97.1071,VALID,0,VALID,18.785,VALID,128,VALID,0.824609,
2012-03-13, 01:17:04,VALID,918.74,VALID,0,VALID,97.069,VALID,0,VALID,18.785,VALID,128,VALID,0.607031,
2012-03-13, 01:18:04,VALID,918.744,VALID,0,VALID,97.1071,VALID,0,VALID,18.7864,VALID,128,VALID,0.129688,
2012-03-13, 01:19:04,VALID,918.74,VALID,0,VALID,97.1223,VALID,0,VALID,18.746,VALID,128,VALID,0.269141,
2012-03-13, 01:20:04,VALID,918.75,VALID,0,VALID,97.1299,VALID,0,VALID,18.746,VALID,128,VALID,0.105469,
2012-03-13, 01:21:04,VALID,918.723,VALID,0,VALID,97.1452,VALID,0,VALID,18.7655,VALID,128,VALID,0.0988281,
2012-03-13, 01:22:04,VALID,918.692,VALID,0,VALID,97.1681,VALID,0,VALID,18.785,VALID,128,VALID,0.0304688,
2012-03-13, 01:23:04,VALID,918.683,VALID,0,VALID,97.1681,VALID,0,VALID,18.785,VALID,128,VALID,0,
2012-03-13, 01:24:04,VALID,918.692,VALID,0,VALID,97.1681,VALID,0,VALID,18.785,VALID,128,VALID,0,
2012-03-13, 01:25:04,VALID,918.715,VALID,0,VALID,97.2062,VALID,0,VALID,18.8254,VALID,128,VALID,0,
2012-03-13, 01:26:04,VALID,918.685,VALID,0,VALID,97.1681,VALID,0,VALID,18.8059,VALID,128,VALID,0,
2012-03-13, 01:27:04,VALID,918.703,VALID,0,VALID,97.1986,VALID,0,VALID,18.7655,VALID,128,VALID,0,
2012-03-13, 01:28:04,VALID,918.671,VALID,0,VALID,97.2595,VALID,0,VALID,18.8254,VALID,128,VALID,0,
2012-03-13, 01:29:04,VALID,918.679,VALID,0,VALID,97.2367,VALID,0,VALID,18.824,VALID,128,VALID,0,
2012-03-13, 01:30:04,VALID,918.641,VALID,0,VALID,97.1681,VALID,0,VALID,18.785,VALID,128,VALID,0,
2012-03-13, 01:31:04,VALID,918.685,VALID,0,VALID,97.1299,VALID,0,VALID,18.7655,VALID,128,VALID,0,
2012-03-13, 01:32:04,VALID,918.667,VALID,0,VALID,97.0842,VALID,0,VALID,18.7265,VALID,128,VALID,0,
2012-03-13, 01:33:04,VALID,918.633,VALID,0,VALID,97.1223,VALID,0,VALID,18.707,VALID,128,VALID,0,
2012-03-13, 01:34:04,VALID,918.662,VALID,0,VALID,97.1071,VALID,0,VALID,18.668,VALID,128,VALID,0.400781,
2012-03-13, 01:35:04,VALID,918.615,VALID,0,VALID,97.1071,VALID,0,VALID,18.629,VALID,128,VALID,0.626172,
2012-03-13, 01:36:04,VALID,918.642,VALID,0,VALID,97.1681,VALID,0,VALID,18.6095,VALID,128,VALID,0.543359,
2012-03-13, 01:37:04,VALID,918.609,VALID,0,VALID,97.1909,VALID,0,VALID,18.5705,VALID,128,VALID,0.795313,
2012-03-13, 01:38:04,VALID,918.617,VALID,0,VALID,97.2214,VALID,0,VALID,18.5511,VALID,128,VALID,0.877344,
2012-03-13, 01:39:04,VALID,918.626,VALID,0,VALID,97.2519,VALID,0,VALID,18.5525,VALID,128,VALID,0.808594,
2012-03-13, 01:40:04,VALID,918.642,VALID,0,VALID,97.2748,VALID,0,VALID,18.5121,VALID,128,VALID,0.524219,
2012-03-13, 01:41:04,VALID,918.617,VALID,0,VALID,97.3053,VALID,0,VALID,18.5121,VALID,128,VALID,0.546484,
2012-03-13, 01:42:04,VALID,918.622,VALID,0,VALID,97.3129,VALID,0,VALID,18.533,VALID,128,VALID,0.340234,
2012-03-13, 01:43:04,VALID,918.609,VALID,0,VALID,97.3358,VALID,0,VALID,18.4926,VALID,128,VALID,0.516406,
2012-03-13, 01:44:04,VALID,918.586,VALID,0,VALID,97.3434,VALID,0,VALID,18.4926,VALID,128,VALID,0.921094,
2012-03-13, 01:45:04,VALID,918.57,VALID,0,VALID,97.3663,VALID,0,VALID,18.5135,VALID,128,VALID,1.07187,
2012-03-13, 01:46:04,VALID,918.547,VALID,0,VALID,97.3663,VALID,0,VALID,18.4731,VALID,128,VALID,0.991797,
2012-03-13, 01:47:04,VALID,918.561,VALID,0,VALID,97.3815,VALID,0,VALID,18.4731,VALID,128,VALID,0.921875,
2012-03-13, 01:48:04,VALID,918.548,VALID,0,VALID,97.3968,VALID,0,VALID,18.4731,VALID,128,VALID,0.848828,
2012-03-13, 01:49:04,VALID,918.532,VALID,0,VALID,97.3968,VALID,0,VALID,18.494,VALID,128,VALID,0.657031,
2012-03-13, 01:50:04,VALID,918.551,VALID,0,VALID,97.4196,VALID,0,VALID,18.494,VALID,128,VALID,0.514844,
2012-03-13, 01:51:04,VALID,918.543,VALID,0,VALID,97.412,VALID,0,VALID,18.4926,VALID,128,VALID,0.690625,
2012-03-13, 01:52:04,VALID,918.539,VALID,0,VALID,97.4196,VALID,0,VALID,18.494,VALID,128,VALID,0.671484,
2012-03-13, 01:53:04,VALID,918.514,VALID,0,VALID,97.412,VALID,0.107441,VALID,18.4731,VALID,128,VALID,0.541016,
2012-03-13, 01:54:04,VALID,918.496,VALID,0,VALID,97.4349,VALID,0.107441,VALID,18.4717,VALID,128,VALID,0.467969,
2012-03-13, 01:55:04,VALID,918.487,VALID,0,VALID,97.4577,VALID,0.107441,VALID,18.4522,VALID,128,VALID,0.314063,
2012-03-13, 01:56:04,VALID,918.462,VALID,0,VALID,97.4806,VALID,0,VALID,18.4717,VALID,128,VALID,0.654688,
2012-03-13, 01:57:04,VALID,918.453,VALID,0,VALID,97.4959,VALID,0.107441,VALID,18.4717,VALID,128,VALID,0.351563,
2012-03-13, 01:58:04,VALID,918.45,VALID,0,VALID,97.4959,VALID,0.107441,VALID,18.4912,VALID,128,VALID,0.452344,
2012-03-13, 01:59:04,VALID,918.44,VALID,0,VALID,97.4959,VALID,0.107441,VALID,18.4912,VALID,128,VALID,0.234375,
2012-03-13, 02:00:04,VALID,918.445,VALID,0,VALID,97.4959,VALID,0.107441,VALID,18.5107,VALID,128,VALID,0,
2012-03-13, 02:01:04,VALID,918.405,VALID,0,VALID,97.5111,VALID,0.107441,VALID,18.5316,VALID,128,VALID,0,
2012-03-13, 02:02:04,VALID,918.405,VALID,0,VALID,97.4806,VALID,0.107441,VALID,18.4912,VALID,128,VALID,0,
2012-03-13, 02:03:04,VALID,918.394,VALID,0,VALID,97.4882,VALID,0,VALID,18.4912,VALID,128,VALID,0.498828,
2012-03-13, 02:04:04,VALID,918.38,VALID,0,VALID,97.4654,VALID,0,VALID,18.4522,VALID,128,VALID,0.746094,
2012-03-13, 02:05:04,VALID,918.354,VALID,0,VALID,97.4654,VALID,0.107441,VALID,18.4536,VALID,128,VALID,0.930469,
2012-03-13, 02:06:04,VALID,918.354,VALID,0,VALID,97.4959,VALID,0.107441,VALID,18.4327,VALID,128,VALID,0.847266,
2012-03-13, 02:07:04,VALID,918.315,VALID,0,VALID,97.4959,VALID,0.107441,VALID,18.4327,VALID,128,VALID,0.808594,
2012-03-13, 02:08:04,VALID,918.32,VALID,0,VALID,97.5187,VALID,0,VALID,18.4146,VALID,128,VALID,0.792188,
2012-03-13, 02:09:04,VALID,918.294,VALID,0,VALID,97.5492,VALID,0,VALID,18.4146,VALID,128,VALID,0.863672,
2012-03-13, 02:10:04,VALID,918.269,VALID,0,VALID,97.5492,VALID,0,VALID,18.4355,VALID,128,VALID,0.906641,
2012-03-13, 02:11:04,VALID,918.25,VALID,0,VALID,97.5416,VALID,0,VALID,18.4146,VALID,128,VALID,0.6625,
2012-03-13, 02:12:04,VALID,918.252,VALID,0,VALID,97.5569,VALID,0,VALID,18.4341,VALID,128,VALID,0.808594,
2012-03-13, 02:13:04,VALID,918.237,VALID,0,VALID,97.5569,VALID,0,VALID,18.4355,VALID,128,VALID,0.711328,
2012-03-13, 02:14:04,VALID,918.242,VALID,0,VALID,97.5797,VALID,0,VALID,18.4341,VALID,128,VALID,0.871484,
2012-03-13, 02:15:04,VALID,918.209,VALID,0,VALID,97.5569,VALID,0,VALID,18.4341,VALID,141,VALID,0.758203,
2012-03-13, 02:16:04,VALID,918.186,VALID,0,VALID,97.5569,VALID,0,VALID,18.4341,VALID,146,VALID,0.901953,
2012-03-13, 02:17:04,VALID,918.163,VALID,0,VALID,97.5721,VALID,0,VALID,18.4341,VALID,151,VALID,0.663281,
2012-03-13, 02:18:04,VALID,918.158,VALID,0,VALID,97.5569,VALID,0,VALID,18.4341,VALID,151,VALID,0.811719,
2012-03-13, 02:19:04,VALID,918.132,VALID,0,VALID,97.5492,VALID,0,VALID,18.4341,VALID,151,VALID,0.896094,
2012-03-13, 02:20:04,VALID,918.132,VALID,0,VALID,97.5645,VALID,0,VALID,18.4341,VALID,151,VALID,0.648828,
2012-03-13, 02:21:04,VALID,918.128,VALID,0,VALID,97.5645,VALID,0,VALID,18.4341,VALID,151,VALID,0.632422,
2012-03-13, 02:22:04,VALID,918.105,VALID,0,VALID,97.5721,VALID,0,VALID,18.4536,VALID,151,VALID,0.615625,
2012-03-13, 02:23:04,VALID,918.094,VALID,0,VALID,97.595,VALID,0,VALID,18.4341,VALID,151,VALID,0.541016,
2012-03-13, 02:24:04,VALID,918.076,VALID,0,VALID,97.5873,VALID,0,VALID,18.4536,VALID,151,VALID,0.925391,
2012-03-13, 02:25:04,VALID,918.053,VALID,0,VALID,97.5721,VALID,0,VALID,18.4341,VALID,151,VALID,0.919531,
2012-03-13, 02:26:04,VALID,918.057,VALID,0,VALID,97.5797,VALID,0,VALID,18.455,VALID,151,VALID,0.926172,
2012-03-13, 02:27:04,VALID,918.06,VALID,0,VALID,97.595,VALID,0,VALID,18.4536,VALID,151,VALID,0.790234,
2012-03-13, 02:28:04,VALID,918.041,VALID,0,VALID,97.5873,VALID,0,VALID,18.4536,VALID,151,VALID,0.668359,
2012-03-13, 02:29:04,VALID,917.999,VALID,0,VALID,97.5797,VALID,0,VALID,18.4536,VALID,151,VALID,0.610156,
2012-03-13, 02:30:04,VALID,917.983,VALID,0,VALID,97.595,VALID,0,VALID,18.4536,VALID,151,VALID,0.386719,
2012-03-13, 02:31:04,VALID,917.974,VALID,0,VALID,97.595,VALID,0,VALID,18.4536,VALID,151,VALID,0.974219,
2012-03-13, 02:32:04,VALID,917.966,VALID,0,VALID,97.5797,VALID,0,VALID,18.4146,VALID,150,VALID,1.14766,
2012-03-13, 02:33:04,VALID,917.973,VALID,0,VALID,97.5721,VALID,0,VALID,18.4536,VALID,150,VALID,0.988281,
2012-03-13, 02:34:04,VALID,917.954,VALID,0,VALID,97.5721,VALID,0,VALID,18.4745,VALID,150,VALID,0.312109,
2012-03-13, 02:35:04,VALID,917.947,VALID,0,VALID,97.5645,VALID,0,VALID,18.4536,VALID,150,VALID,0.400391,
2012-03-13, 02:36:04,VALID,917.955,VALID,0,VALID,97.5721,VALID,0,VALID,18.4536,VALID,150,VALID,0.179688,
2012-03-13, 02:37:04,VALID,917.931,VALID,0,VALID,97.6026,VALID,0,VALID,18.4536,VALID,150,VALID,0.0269531,
2012-03-13, 02:38:04,VALID,917.922,VALID,0,VALID,97.5797,VALID,0,VALID,18.4731,VALID,150,VALID,0.310547,
2012-03-13, 02:39:04,VALID,917.917,VALID,0,VALID,97.5721,VALID,0,VALID,18.4731,VALID,150,VALID,1.08906,
2012-03-13, 02:40:04,VALID,917.863,VALID,0,VALID,97.5797,VALID,0,VALID,18.4536,VALID,149,VALID,1.33438,
2012-03-13, 02:41:04,VALID,917.821,VALID,0,VALID,97.4959,VALID,0,VALID,18.416,VALID,149,VALID,1.11523,
2012-03-13, 02:42:04,VALID,917.797,VALID,0,VALID,97.4806,VALID,0,VALID,18.3756,VALID,56,VALID,1.79805,
2012-03-13, 02:43:04,VALID,917.77,VALID,0,VALID,97.5111,VALID,0,VALID,18.3561,VALID,76,VALID,1.57734,
2012-03-13, 02:44:04,VALID,917.727,VALID,0,VALID,97.5492,VALID,0,VALID,18.3575,VALID,89,VALID,1.05625,
2012-03-13, 02:45:04,VALID,917.764,VALID,0,VALID,97.534,VALID,0,VALID,18.3561,VALID,122,VALID,1.14648,
2012-03-13, 02:46:04,VALID,917.74,VALID,0,VALID,97.5569,VALID,0,VALID,18.3756,VALID,122,VALID,0.865625,
2012-03-13, 02:47:04,VALID,917.723,VALID,0,VALID,97.4959,VALID,0,VALID,18.377,VALID,122,VALID,0.582422,
2012-03-13, 02:48:04,VALID,917.729,VALID,0,VALID,97.473,VALID,0,VALID,18.3756,VALID,122,VALID,0.486328,
2012-03-13, 02:49:04,VALID,917.732,VALID,0,VALID,97.5111,VALID,0,VALID,18.4146,VALID,122,VALID,0.806641,
2012-03-13, 02:50:04,VALID,917.74,VALID,0,VALID,97.5035,VALID,0,VALID,18.4536,VALID,122,VALID,0.319531,
2012-03-13, 02:51:04,VALID,917.693,VALID,0,VALID,97.4806,VALID,0,VALID,18.4536,VALID,122,VALID,0.209766,
2012-03-13, 02:52:04,VALID,917.716,VALID,0,VALID,97.4806,VALID,0,VALID,18.4745,VALID,122,VALID,0.109766,
2012-03-13, 02:53:04,VALID,917.684,VALID,0,VALID,97.4959,VALID,0,VALID,18.4341,VALID,122,VALID,0.409375,
2012-03-13, 02:54:04,VALID,917.672,VALID,0,VALID,97.5111,VALID,0,VALID,18.4536,VALID,122,VALID,0,
2012-03-13, 02:55:04,VALID,917.631,VALID,0,VALID,97.5492,VALID,0,VALID,18.4536,VALID,122,VALID,0.0328125,
2012-03-13, 02:56:04,VALID,917.63,VALID,0,VALID,97.534,VALID,0,VALID,18.455,VALID,122,VALID,0.204688,
2012-03-13, 02:57:04,VALID,917.605,VALID,0,VALID,97.5492,VALID,0,VALID,18.455,VALID,122,VALID,0.0808594,
2012-03-13, 02:58:04,VALID,917.57,VALID,0,VALID,97.5569,VALID,0,VALID,18.455,VALID,122,VALID,0,
2012-03-13, 02:59:04,VALID,917.542,VALID,0,VALID,97.4959,VALID,0,VALID,18.4146,VALID,122,VALID,0.531641,
2012-03-13, 03:00:04,VALID,917.531,VALID,0,VALID,97.5264,VALID,0,VALID,18.3951,VALID,122,VALID,0.569531,
2012-03-13, 03:01:04,VALID,917.527,VALID,0,VALID,97.5569,VALID,0,VALID,18.3951,VALID,122,VALID,0.411719,
2012-03-13, 03:02:04,VALID,917.53,VALID,0,VALID,97.5492,VALID,0,VALID,18.3965,VALID,122,VALID,0.636328,
2012-03-13, 03:03:04,VALID,917.503,VALID,0,VALID,97.5645,VALID,0,VALID,18.416,VALID,122,VALID,0,
2012-03-13, 03:04:04,VALID,917.523,VALID,0,VALID,97.5721,VALID,0,VALID,18.416,VALID,122,VALID,0,
2012-03-13, 03:05:04,VALID,917.505,VALID,0,VALID,97.5721,VALID,0,VALID,18.416,VALID,122,VALID,0,
2012-03-13, 03:06:04,VALID,917.499,VALID,0,VALID,97.6026,VALID,0,VALID,18.4146,VALID,122,VALID,0,
2012-03-13, 03:07:04,VALID,917.512,VALID,0,VALID,97.4654,VALID,0,VALID,18.3366,VALID,122,VALID,0.569531,
2012-03-13, 03:08:04,VALID,917.491,VALID,0,VALID,97.4806,VALID,0,VALID,18.2977,VALID,122,VALID,0.571875,
2012-03-13, 03:09:04,VALID,917.499,VALID,0,VALID,97.5035,VALID,0,VALID,18.299,VALID,122,VALID,0.356641,
2012-03-13, 03:10:04,VALID,917.481,VALID,0,VALID,97.4959,VALID,0,VALID,18.2587,VALID,122,VALID,0.346875,
2012-03-13, 03:11:04,VALID,917.493,VALID,0,VALID,97.4806,VALID,0,VALID,18.2392,VALID,122,VALID,0.609766,
2012-03-13, 03:12:04,VALID,917.497,VALID,0,VALID,97.534,VALID,0,VALID,18.2002,VALID,122,VALID,1.21094,
2012-03-13, 03:13:04,VALID,917.507,VALID,0,VALID,97.5645,VALID,0,VALID,18.2197,VALID,106,VALID,1.01914,
2012-03-13, 03:14:04,VALID,917.512,VALID,0,VALID,97.595,VALID,0,VALID,18.2211,VALID,102,VALID,0.584766,
2012-03-13, 03:15:04,VALID,917.486,VALID,0,VALID,97.5873,VALID,0,VALID,18.2002,VALID,101,VALID,0.95625,
2012-03-13, 03:16:04,VALID,917.472,VALID,0,VALID,97.595,VALID,0,VALID,18.1807,VALID,92,VALID,0.804297,
2012-03-13, 03:17:04,VALID,917.475,VALID,0,VALID,97.595,VALID,0,VALID,18.1821,VALID,92,VALID,0.834766,
2012-03-13, 03:18:04,VALID,917.488,VALID,0,VALID,97.6026,VALID,0,VALID,18.1821,VALID,92,VALID,0.78125,
2012-03-13, 03:19:04,VALID,917.462,VALID,0,VALID,97.6178,VALID,0,VALID,18.1821,VALID,92,VALID,0.873438,
2012-03-13, 03:20:04,VALID,917.467,VALID,0,VALID,97.6178,VALID,0,VALID,18.1612,VALID,92,VALID,0.4875,
2012-03-13, 03:21:04,VALID,917.443,VALID,0,VALID,97.6255,VALID,0,VALID,18.1612,VALID,92,VALID,0.682813,
2012-03-13, 03:22:04,VALID,917.445,VALID,0,VALID,97.6178,VALID,0,VALID,18.1821,VALID,92,VALID,0.83125,
2012-03-13, 03:23:04,VALID,917.458,VALID,0,VALID,97.6255,VALID,0,VALID,18.1612,VALID,117,VALID,0.883984,
2012-03-13, 03:24:04,VALID,917.45,VALID,0,VALID,97.6407,VALID,0,VALID,18.2002,VALID,117,VALID,0.721875,
2012-03-13, 03:25:04,VALID,917.429,VALID,0,VALID,97.6407,VALID,0,VALID,18.2197,VALID,117,VALID,0.360156,
2012-03-13, 03:26:04,VALID,917.448,VALID,0,VALID,97.6331,VALID,0,VALID,18.2587,VALID,117,VALID,0.326953,
2012-03-13, 03:27:04,VALID,917.429,VALID,0,VALID,97.6331,VALID,0,VALID,18.299,VALID,117,VALID,0.673047,
2012-03-13, 03:28:04,VALID,917.407,VALID,0,VALID,97.656,VALID,0,VALID,18.2587,VALID,117,VALID,0.798437,
2012-03-13, 03:29:04,VALID,917.415,VALID,0,VALID,97.6255,VALID,0,VALID,18.2796,VALID,117,VALID,0.955469,
2012-03-13, 03:30:04,VALID,917.439,VALID,0,VALID,97.6407,VALID,0,VALID,18.2977,VALID,117,VALID,0.816797,
2012-03-13, 03:31:04,VALID,917.428,VALID,0,VALID,97.6407,VALID,0,VALID,18.2782,VALID,117,VALID,0.823047,
2012-03-13, 03:32:04,VALID,917.437,VALID,0,VALID,97.6331,VALID,0,VALID,18.2796,VALID,116,VALID,0.830859,
2012-03-13, 03:33:04,VALID,917.417,VALID,0,VALID,97.6178,VALID,0,VALID,18.2406,VALID,116,VALID,0.564844,
2012-03-13, 03:34:04,VALID,917.421,VALID,0,VALID,97.6102,VALID,0,VALID,18.2197,VALID,116,VALID,0.876562,
2012-03-13, 03:35:04,VALID,917.41,VALID,0,VALID,97.595,VALID,0,VALID,18.2406,VALID,116,VALID,0.967969,
2012-03-13, 03:36:04,VALID,917.415,VALID,0,VALID,97.5873,VALID,0,VALID,18.2406,VALID,116,VALID,1.0875,
2012-03-13, 03:37:04,VALID,917.405,VALID,0,VALID,97.6026,VALID,0,VALID,18.2406,VALID,116,VALID,1.01328,
2012-03-13, 03:38:04,VALID,917.382,VALID,0,VALID,97.6102,VALID,0,VALID,18.2392,VALID,116,VALID,1.1582,
2012-03-13, 03:39:04,VALID,917.388,VALID,0,VALID,97.6178,VALID,0.107441,VALID,18.2392,VALID,116,VALID,1.00391,
2012-03-13, 03:40:04,VALID,917.372,VALID,0,VALID,97.6102,VALID,0,VALID,18.2587,VALID,116,VALID,1.22969,
2012-03-13, 03:41:04,VALID,917.364,VALID,0,VALID,97.6178,VALID,0.107441,VALID,18.2573,VALID,116,VALID,1.35273,
2012-03-13, 03:42:04,VALID,917.367,VALID,0,VALID,97.595,VALID,0.107441,VALID,18.2573,VALID,116,VALID,1.14922,
2012-03-13, 03:43:04,VALID,917.375,VALID,0,VALID,97.6178,VALID,0.107441,VALID,18.2768,VALID,116,VALID,1.17969,
2012-03-13, 03:44:04,VALID,917.376,VALID,0,VALID,97.6026,VALID,0.107441,VALID,18.2963,VALID,116,VALID,0.907031,
2012-03-13, 03:45:04,VALID,917.359,VALID,0,VALID,97.6026,VALID,0,VALID,18.3172,VALID,116,VALID,0.983203,